Regional Weather Roundup
Issued by NWS New Orleans/Baton Rouge, LA

Home | Current Version | Previous Version | Graphics & Text | Print | Product List | Glossary On
Versions: 1 2 3 4 5 6 7 8 9 10 11 12 13 14 15 16 17 18 19 20 21 22 23 24 25 26 27 28 29 30 31 32 33 34 35 36 37 38 39 40 41 42 43 44 45 46 47 48 49 50
534
ASUS44 KLIX 212001
RWRLIX
NEW ORLEANS REGIONAL WEATHER ROUNDUP
NATIONAL WEATHER SERVICE NEW ORLEANS LA
300 PM CDT SUN SEP 21 2014

NOTE: "FAIR" INDICATES FEW OR NO CLOUDS BELOW 12,000 FEET WITH NO
      SIGNIFICANT WEATHER AND/OR OBSTRUCTIONS TO VISIBILITY.
      SKY/WX - SKY CONDITION AND SIGNIFICANT WEATHER.
      TMP - AIR TEMPERATURE.     DP    - DEWPOINT TEMPERATURE.
      RH  - RELATIVE HUMIDITY.   PRES  - PRESSURE.
      HI  - HEAT INDEX.          WCI   - WIND CHILL INDEX.

*  THESE STATIONS ARE NOT NWS OR FAA STATIONS AND ARE NOT UNDER
   NWS QUALITY CONTROL.

LAZ038-040-048-061>063-065>067-069-212100-
SOUTHEAST LOUISIANA

CITY           SKY/WX    TMP DP  RH WIND       PRES   REMARKS
N.O. AUDUBON     N/A     87  70  56 MISG        N/A
N.O. INTL ARPT MOSUNNY   88  67  49 NE12      29.98F
N.O. LAKEFRONT SUNNY     87  69  54 NE7       29.99F
N.O. DOWNTOWN* MOCLDY    88  66  48 NE6       29.99F
SLIDELL        MOSUNNY   88  65  46 CALM      29.98F
BATON ROUGE    MOSUNNY   90  65  43 NE10      29.99F
BOOTHVILLE     MOSUNNY   86  74  67 E10       29.97F
BELLE CHASSE   MOSUNNY   87  63  44 E14       29.98F
BOGALUSA*        N/A     90  63  40 CALM      30.00F
GALLIANO*      NOT AVBL
NEW ROADS*       N/A     88  67  49 N8        29.99F
GONZALES*        N/A     88  66  48 E7        29.98F
HAMMOND*       NOT AVBL
HOUMA*         NOT AVBL
PORT FOURCHON* MOCLDY    84  73  70 NE14      30.00F

$$

MSZ070-080>082-212100-
SOUTHERN MISSISSIPPI

CITY           SKY/WX    TMP DP  RH WIND       PRES   REMARKS
MCCOMB         SUNNY     89  61  38 VRB6      30.01F
GULFPORT       SUNNY     86  68  54 SE9       29.98F
BILOXI         SUNNY     87  69  54 S8        29.98F
PASCAGOULA     MOSUNNY   87  66  49 E6        29.98F
STENNIS ARPT*  MOSUNNY   86  64  48 E5        29.99F

$$

COASTAL OBSERVATIONS
LAKE AND NEARSHORE STATIONS

STATION/POSITION TIME  TEMP    WIND        PRES    WAVE
                       AIR SEA DIR/SP/G            HT/PER
                 (UTC) (F)     (DEG/KT/KT) (MB)    (FT/S)
PASCAGOULA       1900   85     120/  7/ 12 1015.2
WAVELAND YACHT   1900   82     160/  8/  9 1015.1
GRAND ISLE       1900   84 82   60/ 10/ 13 1015.7
SOUTHWEST PASS   1900   89 90   80/ 17/ 19 1015.0
NEW CANAL        1900   83 81   40/  7/  9 1016.2
SHELL BEACH      1900   81 78   10/ 13/ 15 1015.7

OFFSHORE STATIONS

STATION/POSITION TIME  TEMP    WIND        PRES    WAVE
                       AIR SEA DIR/SP/G            HT/PER
                 (UTC) (F)     (DEG/KT/KT) (MB)    (FT/S)
64 S DAUPHIN ISL 1908   82 85   80/ 14/ 17 1015.1    4/ 6

$$




USA.gov is the U.S. government's official web portal to all federal, state and local government web resources and services.